Regional Weather Roundup
Issued by NWS

Home | Current Version | Previous Version | Graphics & Text | Print | Product List | Glossary On
Versions: 1 2 3 4 5 6 7 8 9 10 11 12 13 14 15 16 17 18 19 20 21 22 23 24 25 26 27 28 29 30 31 32 33 34 35 36 37 38 39 40 41 42 43 44 45 46 47 48 49 50
000
ASUS43 KBIS 152120
RWRND

NORTH DAKOTA REGIONAL WEATHER ROUNDUP
NATIONAL WEATHER SERVICE BISMARCK ND
400 PM CDT MON SEP 15 2014

NOTE: "FAIR" INDICATES FEW OR NO CLOUDS BELOW 12,000 FEET WITH NO
SIGNIFICANT WEATHER AND/OR OBSTRUCTIONS TO VISIBILITY.


NDZ001>003-009>011-017-152200-
NORTHWEST NORTH DAKOTA

CITY           SKY/WX    TMP DP  RH WIND       PRES   REMARKS
WILLISTON      SUNNY     67  32  27 S10       30.12F
MINOT          SUNNY     67  34  29 SW9G17    30.12F
MINOT AFB      SUNNY     67  36  32 SW10      30.11F
$$

NDZ018>021-031>035-040>046-152200-
SOUTHWEST NORTH DAKOTA

CITY           SKY/WX    TMP DP  RH WIND       PRES   REMARKS
BISMARCK       SUNNY     69  36  29 SW12G20   30.18F
DICKINSON      SUNNY     65  36  34 SW9G18    30.14F
GARRISON         N/A     66  35  31 W12       30.15F
HETTINGER ARPT SUNNY     64  36  35 S12       30.17F
$$

NDZ004>008-012>016-024-026-027-054-152200-
NORTHEAST NORTH DAKOTA

CITY           SKY/WX    TMP DP  RH WIND       PRES   REMARKS
GRAND FORKS    MOSUNNY   67  39  35 W16G24    30.12F
GRND FRKS AFB  PTSUNNY   66  38  34 W15G21    30.13F
DEVILS LAKE    SUNNY     66  37  34 W15G22    30.10F
$$

NDZ022-023-025-028>030-036>039-047>053-152200-
SOUTHEAST NORTH DAKOTA

CITY           SKY/WX    TMP DP  RH WIND       PRES   REMARKS
FARGO          FAIR      65  35  33 W10G17    30.17F
JAMESTOWN      FAIR      63  38  39 W17       30.18F
$$



USA.gov is the U.S. government's official web portal to all federal, state and local government web resources and services.